CW7664 Weather Reports


Display with metric or nautical units.
time (UTC)temp
F
wind
direction
speed
MPH
gust
MPH
rain 1hr
in
rain 24hr
in
rain mn
in
humidity
%
barometer
mb
20260509093009 57 203 0.0 2.0 0.00 0.00 0.00 83 1012.3
20260509091506 57 274 0.0 2.0 0.00 0.00 0.00 83 1012.3
20260509090004 57 262 0.0 3.0 0.00 0.00 0.00 83 1012.4
20260509084503 55 5 0.0 0.0 0.00 0.00 0.00 83 1012.4
20260509083000 55 5 0.0 0.0 0.00 0.00 0.00 82 1012.5
20260509081600 55 5 0.0 2.0 0.00 0.00 0.00 82 1012.5
20260509080056 55 355 0.0 0.0 0.00 0.00 0.00 82 1012.8
20260509074605 55 355 0.0 0.0 0.00 0.00 0.00 82 1012.8
20260509073101 55 355 0.0 0.0 0.00 0.00 0.00 81 1012.8
20260509071602 56 355 0.0 1.0 0.00 0.00 0.00 81 1012.8
20260509070050 56 355 0.0 2.0 0.00 0.00 0.00 81 1012.8
20260509064559 57 333 0.0 0.0 0.00 0.00 0.00 81 1012.9
20260509063049 57 339 0.0 0.0 0.00 0.00 0.00 81 1012.9
20260509061554 57 350 0.0 0.0 0.00 0.00 0.00 80 1012.9
20260509060048 57 350 0.0 0.0 0.00 0.00 0.00 80 1012.9
20260509054548 58 350 0.0 0.0 0.00 0.00 0.00 80 1012.9
20260509053047 58 350 0.0 0.0 0.00 0.00 0.00 79 1012.9
20260509051549 59 350 0.0 0.0 0.00 0.00 0.00 79 1012.8
20260509050046 59 350 0.0 0.0 0.00 0.00 0.00 78 1012.8
20260509044545 60 350 0.0 2.0 0.00 0.00 0.00 78 1012.8
20260509043054 60 333 0.0 1.0 0.00 0.00 0.00 77 1012.6
20260509041545 61 333 0.0 1.0 0.00 0.00 0.00 77 1012.4
20260509040046 61 302 0.0 0.0 0.00 0.00 0.00 76 1012.2
20260509034550 62 302 0.0 1.0 0.00 0.00 0.00 75 1012.1
20260509033049 63 302 0.0 1.0 0.00 0.00 0.00 75 1012.0
20260509031543 63 302 0.0 1.0 0.00 0.00 0.00 75 1012.0
20260509030043 63 291 0.0 3.0 0.00 0.00 0.00 74 1011.9
20260509024543 64 281 0.0 5.0 0.00 0.00 0.00 74 1012.0
20260509023041 64 264 1.0 7.0 0.00 0.00 0.00 73 1011.8
20260509021542 65 326 1.0 6.0 0.00 0.00 0.00 72 1011.5
20260509020040 65 250 2.0 6.0 0.00 0.00 0.00 71 1011.6
20260509014541 67 159 1.0 5.0 0.00 0.00 0.00 69 1011.5
20260509013048 67 218 2.0 6.0 0.00 0.00 0.00 70 1011.7
20260509011539 67 150 3.0 6.0 0.00 0.00 0.00 69 1011.7
20260509010039 68 244 3.0 7.0 0.00 0.00 0.00 68 1011.7
20260509004538 68 232 3.0 10.0 0.00 0.00 0.00 68 1011.8
20260509003038 69 180 4.0 10.0 0.00 0.00 0.00 67 1011.7
20260509001545 69 217 4.0 9.0 0.00 0.00 0.00 66 1011.6
20260509000035 70 247 3.0 10.0 0.00 0.00 0.00 66 1011.7
20260508234534 70 202 3.0 10.0 0.00 0.00 0.00 66 1011.8
20260508233034 71 134 4.0 11.0 0.00 0.00 0.00 65 1011.9
20260508231534 72 184 3.0 8.0 0.00 0.00 0.00 64 1012.1
20260508230030 72 186 3.0 9.0 0.00 0.00 0.00 63 1012.2
20260508224535 73 204 2.0 10.0 0.00 0.00 0.00 63 1012.3
20260508223041 74 292 3.0 11.0 0.00 0.00 0.00 62 1012.5
20260508221527 73 168 4.0 9.0 0.00 0.00 0.00 63 1012.6
20260508220028 74 237 3.0 10.0 0.00 0.00 0.00 62 1012.8
20260508214544 73 209 3.0 10.0 0.00 0.00 0.00 62 1013.0
20260508213021 73 218 5.0 9.0 0.00 0.00 0.00 63 1013.0
20260508211520 73 234 2.0 8.0 0.00 0.00 0.00 63 1013.1
20260508210017 73 244 4.0 9.0 0.00 0.00 0.00 63 1013.4
20260508204518 73 263 4.0 8.0 0.00 0.00 0.00 63 1013.6
20260508203016 73 277 4.0 8.0 0.00 0.00 0.00 64 1013.8
20260508201512 73 94 2.0 10.0 0.00 0.00 0.00 64 1013.9
20260508200019 72 205 5.0 10.0 0.00 0.00 0.00 64 1014.0
20260508194508 72 238 3.0 9.0 0.00 0.00 0.00 65 1014.2
20260508193006 71 256 4.0 8.0 0.00 0.00 0.00 66 1014.2
20260508191505 71 175 4.0 8.0 0.00 0.00 0.00 66 1014.3
20260508190009 70 174 3.0 10.0 0.00 0.00 0.00 67 1014.4
20260508184505 70 240 4.0 8.0 0.00 0.00 0.00 67 1014.6
20260508183114 69 142 2.0 7.0 0.00 0.00 0.00 69 1014.8
20260508181555 68 223 1.0 7.0 0.00 0.00 0.00 71 1015.0
20260508174601 65 218 2.0 4.0 0.00 0.00 0.00 75 1015.2
20260508173044 65 233 1.0 3.0 0.00 0.00 0.00 76 1015.3
20260508171541 64 216 2.0 4.0 0.00 0.00 0.00 77 1015.3
20260508170043 64 260 0.0 2.0 0.00 0.00 0.00 79 1015.2
20260508164544 63 196 1.0 3.0 0.00 0.00 0.00 80 1015.3
20260508163036 62 141 0.0 1.0 0.00 0.00 0.00 81 1015.2
20260508161529 61 229 0.0 2.0 0.00 0.00 0.00 82 1015.2
20260508160026 61 200 0.0 2.0 0.00 0.00 0.00 82 1015.3
20260508154524 61 135 0.0 0.0 0.00 0.00 0.00 83 1015.3
20260508153030 60 80 0.0 0.0 0.00 0.00 0.00 83 1015.3
20260508151520 60 71 0.0 0.0 0.00 0.00 0.00 83 1015.4
20260508150017 59 126 0.0 0.0 0.00 0.00 0.00 83 1015.2
20260508144524 59 94 0.0 0.0 0.00 0.00 0.00 83 1015.3
20260508143011 58 32 0.0 0.0 0.00 0.00 0.00 83 1015.3
20260508141511 58 39 0.0 2.0 0.00 0.00 0.00 84 1015.3
20260508140014 58 68 0.0 1.0 0.00 0.00 0.00 83 1015.2
20260508134505 57 73 0.0 2.0 0.00 0.00 0.00 84 1014.9
20260508133100 57 25 0.0 1.0 0.00 0.00 0.00 84 1014.8
20260508131607 56 25 0.0 1.0 0.00 0.00 0.00 84 1014.8
20260508130057 56 23 0.0 1.0 0.00 0.00 0.00 84 1014.6
20260508124554 56 32 0.0 2.0 0.00 0.00 0.00 83 1014.5
20260508123112 55 32 0.0 1.0 0.00 0.00 0.00 84 1014.5
20260508121601 55 32 0.0 1.0 0.00 0.00 0.00 84 1014.4
20260508120107 55 32 0.0 1.0 0.00 0.00 0.00 84 1014.3
20260508114559 54 32 0.0 1.0 0.00 0.00 0.00 84 1014.1
20260508113103 54 24 0.0 1.0 0.00 0.00 0.00 83 1014.2
20260508111551 54 31 0.0 1.0 0.00 0.00 0.00 83 1014.1
20260508110051 54 31 0.0 1.0 0.00 0.00 0.00 83 1014.2
20260508104549 54 31 0.0 0.0 0.00 0.00 0.00 83 1014.1
20260508103058 54 31 0.0 2.0 0.00 0.00 0.00 83 1014.0
20260508101553 54 31 0.0 1.0 0.00 0.00 0.00 83 1014.1
20260508100045 54 31 0.0 1.0 0.00 0.00 0.00 83 1014.0
20260508094544 54 31 0.0 1.0 0.00 0.00 0.00 83 1014.0